This is the latest recevied weather packets stored in our database for station/object KI8L. If no packets are shown the sender has not sent any weather packets the latest 10 day(s).
| Time | Temp. | Humidity | Pressure | Rain* | Wind** | Luminosity | Snow |
|---|---|---|---|---|---|---|---|
| 1777741506 | 5.56° C | 79% | 1019.6 hPa | 0 mm | - | 223 W/m² | - |
| 1777740596 | 5.56° C | 82% | 1019.8 hPa | 0 mm | - | 216 W/m² | - |
| 1777739685 | 6.11° C | 81% | 1019.7 hPa | 0 mm | - | 552 W/m² | - |
| 1777739383 | 6.11° C | 81% | 1019.5 hPa | 0 mm | - | 607 W/m² | - |
| 1777739079 | 5° C | 80% | 1019.9 hPa | 0 mm | - | 631 W/m² | - |
| 1777738777 | 5.56° C | 85% | 1019.9 hPa | 0 mm | - | 245 W/m² | - |
| 1777738472 | 5.56° C | 80% | 1019.8 hPa | 0 mm | - | 262 W/m² | - |
| 1777738171 | 5.56° C | 81% | 1020 hPa | 0 mm | - | 552 W/m² | - |
| 1777737868 | 5.56° C | 85% | 1019.7 hPa | 0 mm | - | 269 W/m² | - |
| 1777737567 | 5.56° C | 85% | 1019.8 hPa | 0 mm | - | 537 W/m² | - |
| 1777737266 | 5.56° C | 84% | 1020 hPa | 0 mm | - | 281 W/m² | - |
| 1777736961 | 5° C | 86% | 1019.9 hPa | 0 mm | - | 546 W/m² | - |
| 1777736061 | 5° C | 87% | 1019.8 hPa | 0 mm | - | 282 W/m² | - |
| 1777735757 | 4.44° C | 89% | 1020 hPa | 0 mm | - | 577 W/m² | - |
| 1777735455 | 3.89° C | 91% | 1019.8 hPa | 0 mm | - | 341 W/m² | - |
| 1777735153 | 3.89° C | 92% | 1020 hPa | 0 mm | - | 261 W/m² | - |
| 1777734848 | 3.89° C | 91% | 1020 hPa | 0 mm | - | 219 W/m² | - |
| 1777734547 | 3.33° C | 90% | 1020 hPa | 0 mm | - | 215 W/m² | - |
| 1777734243 | 3.33° C | 92% | 1020.1 hPa | 0 mm | - | 139 W/m² | - |
| 1777733939 | 3.33° C | 92% | 1020 hPa | 0 mm | - | 153 W/m² | - |
| 1777733635 | 3.33° C | 92% | 1019.8 hPa | 0 mm | - | 147 W/m² | - |
| 1777733332 | 3.33° C | 93% | 1019.8 hPa | 0 mm | - | 122 W/m² | - |
| 1777733029 | 3.33° C | 93% | 1019.7 hPa | 0 mm | - | 119 W/m² | - |
| 1777732725 | 3.33° C | 92% | 1019.7 hPa | 0 mm | - | 132 W/m² | - |
| 1777732422 | 2.78° C | 94% | 1019.6 hPa | 0 mm | - | 157 W/m² | - |
* Rain latest hour (hover to see other rain measurements)
** Current wind speed in m/s (hover to see current wind gust speed)